Orbital Elements at Epoch 2459200.5 (2020-Dec-17.0) TDB
Reference: JPL 37 (heliocentric ecliptic J2000)
Element | Value | Uncertainty (1-sigma) | Units |
e | .103116791971621 | 3.0536e-08 | |
a | 3.100098229437676 | 1.6092e-08 | au |
q | 2.780426045221161 | 9.2904e-08 | au |
i | 12.41503696274904 | 3.8496e-06 | deg |
node | 186.6703032164214 | 1.4008e-05 | deg |
peri | 63.69329522902883 | 2.3231e-05 | deg |
M | 144.4903432792443 | 2.0142e-05 | deg |
tp | 2458400.301134021792 (2018-Oct-08.80113402) | 0.00010924 | TDB |
period | 1993.708265994102 5.46 | 1.5524e-05 4.25e-08 | d yr |
n | .180568043048413 | 1.406e-09 | deg/d |
Q | 3.419770413654192 | 1.7752e-08 | au |
|
| | Orbit Determination Parameters
Additional Information
|